Date String (YYYY-MM-DD hh:mm:ss) UTC,Instrument flags,Ambient pressure (hPa),Sample flow (lpm),Bypass flow (lpm),Sample temperature (°C),Ambient temperature (°C),ASC tube jacket temperature (°C),LED temperature (°C),Box temperature (°C),Sample RH (%),Span deviation,Mass concentration (μg/m³),Mass concentration (μg/m³),Mass concentration (μg/m³)
DateTimeUTC,F1_M11,P_M11,Q1_M11,Q2_M11,T1_M11,T2_M11,T3_M11,T4_M11,T5_M11,U1_M11,ZSPAN_M11,X0_M11,X2_M11,X1_M11
2022-03-02 05:00:00,,0830.4,5.00,0.00,29.3,28.6,00.0,38.4,31.0,08.6,0000.0,0000.88,0000.48,0000.35
2022-03-02 05:01:00,,0830.4,5.00,0.00,29.3,28.6,00.0,38.4,31.0,08.6,0000.0,0000.90,0000.49,0000.35
2022-03-02 05:02:00,,0830.4,5.01,0.00,29.3,28.5,00.0,38.4,31.0,08.6,0000.0,0000.96,0000.52,0000.36
2022-03-02 05:03:00,,0830.4,5.00,0.00,29.3,28.5,00.0,38.4,31.0,08.7,0000.0,0001.12,0000.53,0000.35
2022-03-02 05:04:00,,0830.4,4.99,0.00,29.3,28.5,00.0,38.4,31.0,08.7,0000.0,0001.03,0000.53,0000.35
2022-03-02 05:05:00,,0830.4,5.02,0.00,29.3,28.5,00.0,38.4,31.0,08.7,0000.0,0001.35,0000.53,0000.35
2022-03-02 05:06:00,,0830.4,5.00,0.00,29.3,28.5,00.0,38.4,31.0,08.7,0000.0,0002.19,0000.53,0000.35
2022-03-02 05:07:00,,0830.4,4.99,0.00,29.3,28.5,00.0,38.4,31.0,08.7,0000.0,0002.16,0000.52,0000.35
2022-03-02 05:08:00,,0830.3,5.01,0.00,29.3,28.5,00.0,38.4,30.9,08.7,0000.0,0002.18,0000.53,0000.35
2022-03-02 05:09:00,,0830.4,4.99,0.00,29.3,28.5,00.0,38.4,30.9,08.7,0000.0,0002.20,0000.54,0000.35
2022-03-02 05:10:00,,0830.4,5.00,0.00,29.3,28.5,00.0,38.3,30.9,08.5,0000.0,0002.13,0000.53,0000.35
2022-03-02 05:11:00,,0830.3,5.00,0.00,29.3,28.5,00.0,38.3,31.0,08.7,0000.0,0002.09,0000.51,0000.35
2022-03-02 05:12:00,,0830.4,4.99,0.00,29.3,28.5,00.0,38.3,31.0,08.7,0000.0,0002.17,0000.51,0000.35
2022-03-02 05:13:00,,0830.4,5.00,0.00,29.3,28.5,00.0,38.3,31.0,08.7,0000.0,0002.69,0000.52,0000.35
2022-03-02 05:14:00,,0830.4,5.00,0.00,29.3,28.5,00.0,38.3,31.0,08.7,0000.0,0002.57,0000.52,0000.35
2022-03-02 05:15:00,,0830.4,5.00,0.00,29.3,28.5,00.0,38.3,31.0,08.7,0000.0,0002.61,0000.53,0000.35
2022-03-02 05:16:00,,0830.4,5.00,0.00,29.2,28.5,00.0,38.3,31.0,08.8,0000.0,0002.30,0000.55,0000.36
2022-03-02 05:17:00,,0830.4,5.01,0.00,29.3,28.5,00.0,38.3,31.0,08.7,0000.0,0001.53,0000.56,0000.36
2022-03-02 05:18:00,,0830.4,5.00,0.00,29.3,28.5,00.0,38.3,30.9,08.7,0000.0,0001.58,0000.55,0000.36
2022-03-02 05:19:00,,0830.4,4.99,0.00,29.3,28.5,00.0,38.3,30.9,08.7,0000.0,0001.53,0000.53,0000.36
2022-03-02 05:20:00,,0830.3,5.01,0.00,29.3,28.5,00.0,38.3,31.0,08.8,0000.0,0001.53,0000.52,0000.36
2022-03-02 05:21:00,,0830.4,5.01,0.00,29.2,28.5,00.0,38.3,31.0,08.7,0000.0,0001.53,0000.52,0000.36
2022-03-02 05:22:00,,0830.4,4.99,0.00,29.2,28.5,00.0,38.3,30.9,08.7,0000.0,0001.63,0000.56,0000.36
2022-03-02 05:23:00,,0830.3,5.00,0.00,29.2,28.5,00.0,38.3,30.9,08.6,0000.0,0001.54,0000.55,0000.37
2022-03-02 05:24:00,,0830.3,5.01,0.00,29.2,28.5,00.0,38.3,31.0,08.5,0000.0,0001.09,0000.53,0000.37
2022-03-02 05:25:00,,0830.3,4.99,0.00,29.2,28.5,00.0,38.3,30.9,08.6,0000.0,0001.09,0000.54,0000.37
2022-03-02 05:26:00,,0830.3,4.99,0.00,29.2,28.5,00.0,38.3,30.9,08.6,0000.0,0001.07,0000.53,0000.37
2022-03-02 05:27:00,,0830.2,5.01,0.00,29.2,28.5,00.0,38.3,31.0,08.7,0000.0,0001.06,0000.52,0000.37
2022-03-02 05:28:00,,0830.2,5.01,0.00,29.2,28.5,00.0,38.3,30.9,08.6,0000.0,0000.97,0000.51,0000.37
2022-03-02 05:29:00,,0830.2,4.99,0.00,29.2,28.5,00.0,38.3,30.9,08.6,0000.0,0000.95,0000.52,0000.37
2022-03-02 05:30:00,,0830.3,5.01,0.00,29.2,28.5,00.0,38.3,30.9,08.6,0000.0,0000.96,0000.53,0000.38
2022-03-02 05:31:00,,0830.2,4.99,0.00,29.2,28.5,00.0,38.3,30.9,08.5,0000.0,0000.97,0000.54,0000.38
2022-03-02 05:32:00,,0830.3,5.01,0.00,29.2,28.4,00.0,38.3,30.9,08.6,0000.0,0001.05,0000.57,0000.38
2022-03-02 05:33:00,,0830.3,5.00,0.00,29.2,28.4,00.0,38.3,30.9,08.6,0000.0,0001.01,0000.55,0000.37
2022-03-02 05:34:00,,0830.2,4.99,0.00,29.2,28.4,00.0,38.3,30.9,08.7,0000.0,0000.95,0000.55,0000.37
2022-03-02 05:35:00,,0830.2,5.00,0.00,29.2,28.4,00.0,38.3,30.9,08.8,0000.0,0000.90,0000.55,0000.37
2022-03-02 05:36:00,,0830.2,5.01,0.00,29.2,28.4,00.0,38.3,30.9,08.8,0000.0,0000.86,0000.53,0000.37
2022-03-02 05:37:00,,0830.3,4.99,0.00,29.2,28.4,00.0,38.3,30.8,08.8,0000.0,0000.86,0000.54,0000.37
2022-03-02 05:38:00,,0830.3,4.99,0.00,29.2,28.4,00.0,38.3,30.8,08.8,0000.0,0000.94,0000.54,0000.37
2022-03-02 05:39:00,,0830.3,5.01,0.00,29.1,28.4,00.0,38.2,30.8,08.8,0000.0,0001.03,0000.55,0000.37
2022-03-02 05:40:00,,0830.3,5.00,0.00,29.1,28.3,00.0,38.2,30.8,08.8,0000.0,0001.00,0000.54,0000.38
2022-03-02 05:41:00,,0830.3,5.00,0.00,29.1,28.3,00.0,38.2,30.8,08.8,0000.0,0000.95,0000.52,0000.37
2022-03-02 05:42:00,,0830.3,5.03,0.00,29.1,28.3,00.0,38.2,30.8,08.8,0000.0,0000.96,0000.52,0000.37
2022-03-02 05:43:00,,0830.3,5.00,0.00,29.1,28.3,00.0,38.2,30.8,08.8,0000.0,0000.99,0000.52,0000.38
2022-03-02 05:44:00,,0830.3,4.98,0.00,29.1,28.3,00.0,38.2,30.7,08.8,0000.0,0001.05,0000.55,0000.39
2022-03-02 05:45:00,,0830.4,5.01,0.00,29.1,28.2,00.0,38.2,30.7,08.8,0000.0,0001.05,0000.55,0000.39
2022-03-02 05:46:00,,0830.4,4.99,0.00,29.1,28.2,00.0,38.2,30.7,08.9,0000.0,0001.12,0000.56,0000.39
2022-03-02 05:47:00,,0830.3,5.01,0.00,29.0,28.2,00.0,38.2,30.8,08.9,0000.0,0001.17,0000.58,0000.39
2022-03-02 05:48:00,,0830.4,5.00,0.00,29.0,28.2,00.0,38.2,30.7,08.9,0000.0,0001.17,0000.57,0000.38
2022-03-02 05:49:00,,0830.3,5.01,0.00,29.0,28.2,00.0,38.1,30.7,08.8,0000.0,0001.07,0000.56,0000.38
2022-03-02 05:50:00,,0830.4,5.00,0.00,29.0,28.2,00.0,38.1,30.7,08.8,0000.0,0001.02,0000.56,0000.39
2022-03-02 05:51:00,,0830.3,4.99,0.00,29.0,28.2,00.0,38.1,30.7,08.8,0000.0,0001.01,0000.56,0000.39
2022-03-02 05:52:00,,0830.4,5.00,0.00,29.0,28.2,00.0,38.1,30.7,08.7,0000.0,0001.06,0000.58,0000.39
2022-03-02 05:53:00,,0830.4,5.01,0.00,29.0,28.2,00.0,38.1,30.7,08.8,0000.0,0001.09,0000.59,0000.39
2022-03-02 05:54:00,,0830.4,4.99,0.00,29.0,28.1,00.0,38.1,30.7,08.8,0000.0,0001.04,0000.60,0000.39
2022-03-02 05:55:00,,0830.4,5.00,0.00,29.0,28.1,00.0,38.1,30.7,08.9,0000.0,0000.95,0000.57,0000.38
2022-03-02 05:56:00,,0830.4,5.01,0.00,29.0,28.1,00.0,38.1,30.7,08.8,0000.0,0000.99,0000.58,0000.38
2022-03-02 05:57:00,,0830.4,5.00,0.00,29.0,28.1,00.0,38.1,30.6,08.9,0000.0,0000.94,0000.57,0000.38
2022-03-02 05:58:00,,0830.4,4.99,0.00,28.9,28.1,00.0,38.1,30.6,08.9,0000.0,0000.87,0000.55,0000.37
2022-03-02 05:59:00,,0830.4,5.00,0.00,28.9,28.1,00.0,38.1,30.6,08.9,0000.0,0000.90,0000.58,0000.38
